Theta_e
285 285 285 285 285 285 285 284 284 284 284 285 285 285 285 285 285 284 284 284 285 284 284 283 283 283 283 283 282 282 282 281 281 281 281 280 280 280 279 278 277 277 277 277 276 276 276 276 276 275 275 275 275 276 275 275 275 274 274 274 275 276
285 285 285 284 284 284 284 283 284 283 284 284 284 284 284 284 284 284 284 284 284 283 283 283 283 283 283 282 282 281 281 281 281 280 279 279 279 278 277 277 277 276 276 276 276 276 275 275 275 275 274 275 274 274 275 274 274 273 273 274 274 276
285 285 284 284 283 283 283 283 283 284 284 284 284 284 283 284 283 284 283 283 283 283 283 282 282 282 282 281 281 281 280 280 280 279 279 278 278 277 277 277 276 276 276 276 276 275 275 274 274 274 274 274 273 273 274 273 273 273 273 273 273 274
285 284 283 282 283 282 283 283 283 283 283 283 283 283 283 283 283 284 283 283 283 282 282 282 282 282 281 281 280 280 280 279 279 278 278 277 277 277 277 276 276 276 276 275 275 274 274 273 274 273 273 273 273 272 274 273 272 272 272 272 272 273
285 284 283 283 283 283 282 282 283 283 283 282 283 283 283 283 283 283 283 282 282 282 282 282 281 281 281 280 280 279 279 278 278 278 277 277 276 276 276 276 276 275 275 275 274 274 273 273 272 272 272 272 271 271 271 272 272 272 272 272 272 272
284 283 283 282 282 282 282 283 282 282 282 283 283 283 282 283 283 283 282 282 282 282 281 281 281 280 280 280 279 278 278 278 277 277 277 276 276 276 275 275 275 275 274 274 273 273 272 272 272 272 272 272 271 271 272 271 272 272 272 272 272 272
283 284 284 283 283 282 282 283 282 282 282 282 283 283 282 283 282 282 282 282 281 281 281 281 280 280 279 279 278 278 277 277 276 276 276 275 275 275 275 274 274 274 274 274 273 272 272 272 271 272 271 271 271 271 271 271 272 272 272 272 272 275
285 284 284 283 283 282 282 283 283 282 282 282 283 282 282 282 282 282 282 282 281 281 281 280 280 280 279 278 277 277 276 276 276 276 275 275 275 274 274 274 274 274 273 272 272 271 271 270 270 270 270 270 270 271 272 272 272 272 272 272 272 272
284 284 284 283 283 282 282 283 282 282 282 282 282 282 282 282 282 282 282 281 281 281 280 280 280 279 278 278 277 276 275 275 275 275 275 275 274 274 273 273 273 272 272 271 271 271 271 270 270 270 269 270 271 271 272 271 271 272 272 272 272 272
285 284 284 283 283 282 282 282 283 282 282 282 282 282 282 283 282 282 282 281 281 281 280 280 280 279 278 277 276 275 275 275 274 274 274 274 274 273 273 272 272 271 271 270 270 270 269 269 269 269 270 270 270 270 270 271 271 271 271 271 272 272
285 285 284 283 283 282 282 282 282 282 282 282 282 282 282 283 283 282 282 281 281 281 280 280 280 278 277 276 275 275 274 274 274 273 273 273 273 273 272 271 271 271 270 270 270 269 270 270 270 270 270 270 270 270 271 271 270 270 270 270 270 270
286 285 285 284 283 283 282 282 282 282 282 282 282 283 284 283 283 282 282 281 281 281 281 281 280 279 278 276 275 275 275 274 273 273 273 274 274 273 271 270 270 270 270 270 269 269 270 270 270 273 276 275 271 271 272 273 272 271 270 269 269 269
286 286 285 284 284 283 283 283 283 282 282 282 283 283 283 283 283 283 282 281 281 281 281 280 279 278 277 277 276 275 274 274 273 274 274 273 272 271 270 270 270 269 269 269 269 269 269 270 270 275 277 278 277 274 273 272 271 272 272 271 270 269
287 286 286 285 285 284 284 283 283 282 282 283 283 283 283 283 283 282 282 282 282 281 281 280 279 278 277 277 276 275 275 274 274 273 272 271 270 269 268 268 269 269 269 269 268 268 269 269 274 277 278 278 278 277 274 273 273 272 272 272 271 270
288 287 287 286 286 285 285 284 283 282 283 283 283 284 283 283 283 283 282 282 282 281 281 280 279 278 278 277 276 275 274 273 273 272 271 271 271 268 268 269 269 268 268 268 268 268 268 268 275 277 278 278 278 278 277 274 273 272 272 272 272 272
289 288 288 288 287 286 285 285 284 283 283 283 283 283 283 283 283 282 282 282 281 281 281 280 279 279 278 277 276 274 273 273 272 272 271 270 269 269 268 267 267 267 267 268 267 267 267 267 273 277 278 278 278 278 277 274 273 272 272 272 272 272
289 289 288 287 286 286 285 284 284 283 282 282 282 282 282 282 282 282 282 282 281 281 280 280 279 279 278 276 275 274 273 273 272 271 270 270 270 269 268 268 267 267 267 266 266 266 266 267 274 276 278 278 278 278 277 274 273 272 272 272 272 271
289 289 288 287 285 284 284 284 284 283 282 282 282 282 282 283 282 282 282 281 281 280 280 279 279 279 277 276 274 273 273 272 271 271 270 269 268 266 266 265 265 266 266 266 265 265 266 266 274 276 277 278 278 278 275 274 272 271 271 270 270 269
289 288 287 285 285 285 284 284 283 283 282 282 282 282 282 282 282 282 282 281 281 280 280 279 279 278 277 275 274 273 273 272 271 270 269 268 268 268 267 266 266 266 266 265 264 265 265 264 270 275 277 278 278 277 273 272 270 269 268 268 269 270
286 286 287 285 285 285 285 284 283 283 282 282 282 282 282 282 282 282 282 281 280 280 279 279 279 278 276 275 274 273 274 273 272 270 269 269 268 267 267 266 265 265 265 265 264 265 264 264 267 273 276 277 278 276 271 271 269 268 268 268 269 269
287 286 285 285 285 285 284 284 283 283 282 281 281 281 281 281 281 281 280 280 280 280 280 280 279 278 276 275 275 274 273 272 271 270 268 268 268 268 266 265 265 263 263 263 264 266 265 263 265 272 275 277 277 276 272 270 268 268 268 268 268 269
285 284 285 285 285 283 283 283 283 282 281 280 280 279 280 280 281 281 280 280 280 280 280 280 279 278 277 276 275 274 273 271 268 268 268 267 266 266 265 265 264 264 263 263 262 263 265 264 263 265 273 276 277 277 273 270 268 267 267 268 268 267
285 284 284 284 282 282 282 282 282 281 281 280 279 279 280 281 280 280 280 280 280 279 279 279 279 278 277 276 275 273 270 269 269 267 267 266 265 264 263 263 263 263 262 262 263 262 262 263 263 264 271 274 276 277 276 270 269 268 268 268 268 268
281 281 280 280 281 281 281 282 282 281 279 279 279 280 281 280 280 280 279 279 279 278 278 278 278 278 276 273 271 270 269 267 267 267 266 265 264 264 263 262 262 262 262 261 261 261 262 263 266 263 268 272 275 277 278 273 271 270 269 269 268 268
279 279 278 277 278 280 281 281 281 280 279 279 281 281 280 279 279 279 279 278 278 277 277 277 276 275 273 271 270 270 269 266 265 264 264 264 263 263 263 262 261 261 261 260 261 261 261 261 262 268 266 270 273 276 277 278 275 275 272 269 268 268
277 277 276 276 277 278 281 282 281 279 279 280 282 278 277 276 276 276 277 276 276 276 275 273 272 272 271 270 269 268 267 265 264 263 263 263 263 263 262 261 261 260 260 261 261 261 261 261 261 265 270 269 272 274 277 278 278 277 273 272 270 270
278 277 275 276 275 276 278 279 281 279 279 280 278 278 277 276 275 276 276 276 275 274 273 271 271 270 269 268 268 268 266 264 263 263 261 262 263 262 263 262 261 261 261 261 261 262 262 262 262 262 265 271 272 275 276 277 278 278 278 274 273 273
275 276 276 274 273 274 275 276 279 279 280 276 275 274 275 275 275 276 276 275 274 273 270 270 267 267 267 267 268 269 268 266 264 265 263 262 263 262 263 263 261 261 261 261 262 262 262 262 262 262 263 267 270 272 275 276 277 277 277 277 275 276
275 274 273 274 272 273 273 273 276 278 274 273 274 274 275 275 276 275 274 274 272 269 269 270 268 266 265 265 265 265 265 265 264 264 263 262 263 262 262 263 262 262 262 262 262 261 261 261 262 263 264 265 266 267 269 272 273 276 276 275 274 275
275 274 273 275 275 273 273 273 275 274 269 268 273 273 274 274 274 275 273 272 270 269 268 269 266 266 265 264 265 265 264 264 264 265 265 263 264 263 263 263 263 263 263 263 262 261 260 261 262 263 264 265 265 265 266 267 268 268 269 270 271 270
275 275 275 276 275 273 272 273 273 271 272 270 269 272 274 273 271 269 267 267 267 267 266 267 266 266 265 264 263 264 265 265 264 265 266 263 262 264 265 264 264 264 263 263 263 262 261 262 262 264 269 267 269 267 266 266 267 268 268 270 272 269
274 274 274 274 272 271 272 272 271 269 271 268 267 271 273 270 269 268 268 268 268 266 265 265 264 263 264 263 263 262 261 264 268 266 264 263 268 270 271 270 265 264 264 264 264 264 265 265 265 269 272 272 273 273 273 272 271 272 270 271 274 273
272 271 271 273 271 271 272 270 269 267 267 268 267 269 270 269 270 269 267 266 267 267 266 265 264 263 262 262 262 261 262 261 264 271 272 270 269 271 273 274 274 273 271 266 263 266 272 272 272 272 273 274 274 275 275 275 275 275 275 275 273 271
272 273 275 273 272 271 269 269 267 269 268 268 268 269 270 270 271 270 270 268 267 267 265 265 264 263 262 262 261 261 261 262 262 262 270 273 273 272 273 274 275 275 275 274 271 266 265 271 273 273 273 274 274 275 275 276 276 276 277 277 277 272
275 274 273 271 270 269 268 269 268 267 267 268 268 268 269 269 270 270 269 267 266 266 265 264 264 263 263 262 261 261 261 261 262 263 262 266 273 274 274 274 275 275 276 276 275 274 270 270 272 273 274 274 275 275 275 276 277 277 277 277 274 271
272 271 270 269 269 269 268 268 266 266 267 266 266 267 269 269 269 269 269 267 266 265 265 265 264 264 263 263 263 262 261 262 263 262 262 261 260 266 272 275 275 275 275 276 276 275 275 274 274 274 274 275 275 276 276 276 274 277 277 275 271 270
270 269 269 269 267 267 266 267 266 263 263 264 265 266 266 267 267 266 266 265 265 266 265 265 265 264 263 262 262 261 261 261 261 262 261 261 262 263 265 267 270 273 275 273 274 275 276 276 276 276 276 276 276 276 276 276 273 271 271 271 270 267
268 267 266 266 266 266 266 266 261 260 261 261 262 263 264 264 264 264 265 263 264 264 263 263 263 263 262 262 261 261 260 260 260 261 260 260 260 262 263 263 265 265 267 269 270 271 272 273 274 274 274 274 275 275 275 270 268 268 268 267 268 266
Wind_Speed
13 13 13 10 9 9 9 9 9 9 8 8 10 12 11 11 9 8 7 7 8 7 8 9 8 7 8 7 8 8 9 9 7 7 7 7 6 7 6 5 5 5 4 5 4 4 4 4 4 4 4 4 4 3 4 3 3 3 3 2 2 2
13 13 13 13 13 11 9 9 8 10 9 10 8 7 7 8 9 9 9 7 8 8 7 6 7 7 8 8 9 9 8 8 8 8 7 7 6 6 6 5 5 5 5 4 5 4 4 4 4 4 4 4 3 3 3 2 3 3 3 2 3 2
11 9 8 8 7 7 8 9 11 11 9 10 10 13 11 10 9 9 8 8 8 10 10 9 8 8 8 8 7 8 8 7 7 7 7 6 6 6 6 6 5 4 4 4 4 4 4 4 4 3 3 3 3 2 3 3 3 3 2 2 3 3
11 9 8 7 8 9 9 8 9 10 10 10 10 10 10 11 10 10 9 8 9 10 10 9 7 8 8 8 8 8 8 7 8 7 7 7 6 6 7 6 4 4 4 4 4 4 4 3 3 3 3 3 2 2 2 2 3 2 2 2 2 3
12 12 13 13 12 10 9 9 11 11 11 11 10 12 11 10 11 9 9 10 10 10 9 9 8 8 9 9 8 8 8 7 7 6 8 7 6 5 6 6 5 5 4 4 4 4 3 3 3 3 3 2 2 2 2 2 2 1 1 2 1 1
9 10 12 12 12 12 12 10 10 10 11 11 11 12 12 10 10 10 10 10 10 10 9 9 8 9 9 9 8 9 7 7 7 6 7 7 6 7 5 5 6 5 5 4 4 3 3 3 3 2 2 2 2 2 1 1 1 1 1 1 1 1
14 15 14 13 12 11 11 12 12 12 12 11 12 12 11 11 10 11 11 11 12 10 10 10 9 10 9 9 8 8 8 7 7 6 7 7 7 6 6 5 4 4 4 5 4 3 3 3 3 2 1 2 3 2 1 1 1 1 1 1 0 1
13 11 12 11 12 13 13 12 12 11 11 12 11 13 11 11 10 12 12 11 13 12 11 11 10 10 10 9 8 9 8 8 7 7 6 7 8 6 5 6 5 5 4 4 4 3 3 3 3 3 2 2 2 3 2 2 2 1 1 0 0 0
15 16 13 13 12 12 12 13 13 12 12 12 11 12 12 12 12 12 12 12 12 12 11 11 11 10 10 9 9 8 7 8 7 7 8 6 7 8 7 5 5 4 4 4 4 3 3 3 3 2 3 3 3 3 2 2 1 1 0 0 1 1
16 15 16 14 14 13 12 12 13 14 14 15 13 12 12 11 12 12 12 12 11 11 12 10 10 10 9 8 8 8 8 7 7 7 6 6 7 7 7 7 6 4 4 4 4 3 3 3 3 3 3 3 3 2 2 1 0 0 1 1 1 1
15 16 15 15 13 15 15 13 12 11 10 10 12 12 13 12 13 13 13 12 12 12 11 10 9 8 9 9 9 8 8 8 7 6 6 6 6 6 6 5 5 5 4 4 4 3 3 4 4 3 4 4 3 3 2 1 1 1 1 2 2 2
14 13 14 13 16 16 14 13 14 14 15 14 13 14 12 13 13 14 13 13 12 11 11 11 10 10 10 10 10 10 9 8 8 7 7 7 6 6 6 5 4 5 5 4 4 4 4 4 3 5 9 7 5 3 3 2 2 2 2 2 3 3
11 11 13 15 15 16 16 16 14 12 12 12 14 14 14 13 14 14 13 13 12 11 11 11 11 11 11 11 10 8 9 9 8 7 7 6 6 7 6 6 6 5 4 5 4 5 5 4 3 10 10 10 10 6 4 3 3 3 4 3 3 4
14 15 17 17 17 17 15 14 12 12 15 15 14 14 13 13 13 14 14 13 12 12 13 12 12 12 12 10 10 10 9 8 8 8 8 7 7 6 5 6 6 5 4 4 4 5 5 4 8 12 11 10 9 8 5 4 4 4 4 4 4 3
17 18 18 15 15 15 16 15 13 15 16 14 13 10 13 14 15 14 13 13 13 13 12 12 13 12 12 11 10 9 8 9 9 8 8 9 7 6 7 7 7 6 5 5 6 5 5 4 10 12 12 11 10 10 8 4 5 4 5 5 5 4
11 13 15 16 15 14 11 12 15 13 9 9 9 12 12 13 13 13 13 12 13 13 13 13 13 13 12 10 10 9 10 10 11 9 7 6 6 7 6 5 7 6 6 6 6 5 4 5 9 12 11 11 11 10 8 5 5 5 5 6 6 5
12 10 9 10 11 11 11 11 11 10 10 11 12 12 12 12 12 12 12 13 13 12 12 13 12 13 11 11 11 10 11 11 9 9 8 9 10 10 10 10 8 7 6 5 5 5 6 6 11 12 12 12 12 11 9 5 5 5 6 6 6 5
12 12 13 8 9 10 12 13 11 12 13 11 13 12 12 12 12 13 12 13 12 13 14 14 13 13 11 11 11 11 12 11 11 11 9 7 6 4 4 4 4 7 7 6 5 5 7 6 12 13 13 13 12 12 5 5 6 6 6 6 6 4
8 8 6 8 11 12 13 12 12 13 11 12 13 13 12 12 13 15 15 14 13 14 14 14 14 13 12 12 12 12 12 12 10 8 7 8 8 8 8 9 8 7 7 7 6 7 7 5 10 13 13 13 13 9 4 5 4 4 4 5 5 5
5 5 9 10 11 13 11 11 12 12 12 12 11 12 12 13 16 15 14 13 13 13 13 13 13 13 13 12 14 15 13 10 8 9 9 11 11 10 10 8 7 6 7 8 8 8 7 7 9 13 13 13 13 10 6 5 4 5 6 5 6 4
8 7 7 9 11 10 10 11 12 12 12 11 12 12 13 15 16 14 13 13 12 11 12 12 12 12 13 14 14 13 13 12 12 9 8 8 7 8 7 7 7 6 5 6 7 8 8 7 8 11 13 14 13 10 5 6 5 6 6 5 5 5
6 5 7 9 9 6 8 8 10 10 11 10 9 11 14 16 14 10 10 9 10 10 11 11 12 12 13 15 12 10 11 7 6 8 9 8 7 7 7 7 7 8 7 6 6 7 8 8 7 6 12 14 14 15 7 5 6 7 6 7 6 6
4 6 5 4 5 6 7 8 9 10 9 9 9 13 16 12 8 9 11 10 10 10 11 10 12 14 13 12 11 10 7 7 9 8 8 9 6 6 6 7 7 7 6 6 6 6 7 7 7 6 11 13 15 16 14 6 8 7 7 6 6 6
4 4 3 4 6 7 7 9 10 8 8 8 12 15 10 7 9 9 8 9 9 9 10 11 10 10 10 7 7 8 8 5 5 6 7 6 7 8 8 6 6 7 6 4 5 6 8 7 10 6 10 14 16 17 19 8 8 9 6 7 6 6
4 4 4 3 5 6 7 9 9 7 8 10 15 10 6 8 7 7 7 7 8 9 10 9 10 9 7 8 9 9 9 6 7 6 6 7 7 8 8 8 7 6 6 5 6 6 7 6 7 12 9 13 16 18 18 19 12 16 9 7 7 8
4 4 2 3 4 5 6 9 9 8 9 14 9 4 5 5 6 6 7 7 8 8 8 8 8 7 7 8 8 8 8 8 7 7 7 7 8 8 8 7 6 6 7 9 8 7 7 6 6 9 14 13 17 17 19 19 19 18 10 9 7 7
6 5 3 2 3 3 5 5 10 8 11 9 5 6 7 6 7 8 8 8 8 8 7 6 7 8 7 8 9 10 9 8 8 9 6 8 8 8 9 8 7 9 9 8 9 8 6 6 6 6 10 17 17 18 18 19 19 19 19 12 9 9
4 5 5 2 3 4 4 5 7 11 10 3 5 5 6 7 8 8 9 8 8 8 7 8 6 7 7 8 8 10 10 12 11 10 9 8 9 9 9 9 8 9 8 9 8 8 7 5 5 7 7 8 12 13 17 19 18 18 19 17 11 14
6 6 6 6 5 5 5 5 6 6 2 5 5 6 6 7 8 8 6 8 7 6 7 10 8 7 6 7 6 6 7 7 8 8 9 10 10 10 9 9 10 9 9 10 9 6 5 5 6 6 6 6 7 7 8 10 10 15 16 11 9 10
7 7 6 8 7 6 6 6 7 5 3 4 5 6 7 7 8 8 7 7 6 7 7 8 9 9 8 8 9 9 8 8 9 11 13 14 14 14 13 11 11 12 11 10 7 5 5 6 6 7 8 8 8 7 6 6 6 6 5 6 5 3
7 8 8 8 6 6 6 7 5 5 5 4 5 7 7 8 6 5 5 6 6 7 6 6 7 7 8 8 7 8 8 10 11 12 10 5 3 7 9 9 9 8 5 5 7 8 7 6 8 10 11 9 10 10 7 7 7 6 6 8 10 7
6 5 6 4 1 4 5 6 5 4 4 4 5 6 8 7 7 6 6 7 7 6 7 7 7 7 7 8 8 8 6 5 8 8 7 7 7 12 12 9 9 7 7 7 7 7 9 9 8 8 13 15 16 17 17 14 13 13 10 11 16 11
4 4 5 5 3 4 5 4 3 3 4 4 4 5 6 7 7 7 7 7 8 10 9 8 7 7 7 7 7 7 8 7 6 13 16 12 10 12 15 16 15 13 13 10 7 8 14 11 8 9 11 14 16 17 17 17 16 17 17 17 11 11
5 7 9 4 4 4 4 4 4 6 6 6 7 6 7 7 8 8 9 9 7 8 8 7 7 7 8 7 7 7 7 8 8 7 11 17 16 16 16 16 16 16 15 16 12 7 5 10 12 11 12 13 14 15 16 16 17 18 18 18 18 11
6 4 2 3 4 4 4 4 5 5 5 6 7 7 7 7 7 7 6 6 7 7 8 8 8 8 8 9 9 8 7 8 8 9 7 6 13 17 16 17 16 17 17 15 15 14 11 9 10 13 13 13 14 15 16 17 18 18 19 19 13 8
2 3 3 4 4 4 4 4 4 5 5 5 6 6 7 7 8 8 7 7 8 8 8 8 8 8 8 7 7 7 8 8 8 7 5 5 3 6 11 15 17 16 15 16 16 14 14 13 14 13 14 15 15 15 15 15 13 17 18 14 8 7
1 2 3 4 3 4 4 5 3 3 3 4 5 5 5 6 6 6 6 8 7 7 7 7 6 7 6 6 7 7 6 7 5 5 6 6 7 8 7 5 6 10 13 10 10 12 13 13 13 14 15 15 15 15 15 15 9 8 7 7 6 3
1 1 1 2 3 3 2 2 2 0 1 2 3 4 4 4 4 4 4 4 5 5 4 4 5 5 6 6 6 5 5 5 5 6 5 4 4 5 5 3 2 1 5 6 5 6 5 7 9 10 10 11 11 11 12 7 6 6 6 6 7 7
Wind_Direction
177 176 176 175 173 172 167 158 155 155 157 158 157 155 155 150 145 139 135 137 138 141 141 140 137 136 130 126 125 127 128 131 134 131 129 117 117 119 120 115 112 109 104 105 101 97 95 86 79 72 66 70 71 59 67 50 70 70 38 4 47 17
176 174 172 172 172 169 167 158 154 157 157 152 149 138 138 139 141 143 142 140 136 134 130 133 139 139 135 135 134 133 135 139 136 133 127 131 125 126 122 119 120 120 116 113 109 103 97 85 72 75 72 73 78 86 71 55 81 59 52 2 30 44
171 169 168 165 159 160 158 161 162 159 154 154 155 153 154 151 150 146 146 140 141 142 146 147 146 138 132 128 132 133 139 139 134 132 134 126 130 133 125 124 128 124 124 121 111 104 100 90 77 77 87 84 77 65 93 65 70 62 18 44 12 22
166 161 156 156 160 166 165 161 155 157 162 160 155 153 157 154 156 153 149 147 148 151 150 149 143 137 134 134 139 141 144 142 138 139 136 134 143 134 132 131 132 129 124 117 112 107 107 104 101 94 93 91 81 50 65 71 61 62 29 47 31 5
171 168 167 169 171 169 165 164 166 166 163 159 162 160 164 162 157 151 149 149 153 155 153 146 145 141 141 142 148 149 148 143 140 145 142 142 140 133 135 139 135 133 123 117 119 114 114 113 104 99 99 100 114 96 54 71 83 76 49 35 5 352
160 161 172 172 172 174 175 172 168 166 167 166 161 164 162 159 155 152 152 153 156 156 152 151 146 145 148 151 156 153 151 146 148 148 142 143 139 137 138 135 139 131 133 131 125 128 123 111 113 89 107 131 120 113 92 46 57 79 80 92 12 353
177 184 180 178 175 172 173 175 176 172 171 168 167 165 164 156 157 156 159 159 157 161 157 155 154 153 157 157 159 157 151 153 151 152 149 144 143 143 136 134 132 138 141 141 139 134 134 138 128 118 97 102 131 132 110 65 77 73 75 74 76 358
183 179 183 179 179 178 177 178 178 175 172 175 169 164 163 163 161 164 161 164 162 163 163 160 158 161 163 163 161 160 160 157 156 155 155 152 147 142 144 146 150 156 154 137 138 140 145 141 136 144 161 146 102 84 86 93 87 75 72 21 0 30
189 191 184 183 180 180 181 180 179 177 174 174 174 169 166 165 166 167 167 169 167 164 166 166 167 165 165 167 164 159 161 163 159 157 159 161 152 150 153 153 149 157 139 135 135 148 150 148 145 149 145 122 99 98 89 64 64 39 328 326 308 319
190 186 187 182 184 183 183 186 183 180 178 176 174 171 169 169 169 169 171 170 171 171 169 170 166 165 168 165 159 163 164 160 160 159 159 156 157 157 156 158 156 153 143 138 150 157 149 153 158 149 133 118 119 115 106 125 166 231 317 293 301 283
195 192 187 188 180 185 187 182 183 182 180 178 177 174 178 170 167 172 174 175 176 175 169 165 166 164 165 161 160 163 166 166 162 160 163 164 158 151 148 145 150 145 143 149 154 169 171 174 188 162 151 135 133 141 151 184 202 223 253 273 271 277
196 192 188 185 189 190 186 186 187 186 182 182 181 179 176 167 176 174 177 179 179 172 170 168 166 169 166 165 169 171 167 164 163 163 164 168 160 145 143 142 150 156 156 163 177 183 192 190 191 180 177 166 155 158 168 190 208 226 231 240 260 262
190 187 192 196 194 192 191 193 190 184 184 185 184 181 177 173 175 180 178 182 179 173 170 169 172 168 172 173 170 168 167 167 164 166 168 165 160 155 152 151 160 168 169 173 182 192 198 199 195 195 190 185 176 166 183 197 209 228 236 235 239 244
189 192 197 197 198 195 192 189 185 183 194 190 186 182 172 176 179 180 184 183 177 177 176 175 170 172 175 172 177 173 172 166 166 170 172 166 162 162 151 164 180 172 174 178 188 199 204 204 206 204 199 194 194 186 183 200 214 221 236 239 235 241
195 197 200 199 198 196 197 187 180 194 194 189 187 168 176 182 184 185 183 182 181 180 178 173 173 176 176 180 175 171 166 171 174 172 171 181 172 152 167 182 174 184 181 183 194 205 209 211 217 210 202 201 198 203 200 203 213 223 230 236 242 240
203 204 203 200 199 199 189 185 194 194 179 173 166 180 184 185 189 185 184 182 185 181 177 176 178 181 181 175 171 169 174 177 184 182 178 161 158 172 175 179 187 182 188 192 194 203 212 214 225 214 209 204 204 205 208 206 213 224 230 235 237 238
204 204 200 200 192 183 176 189 187 172 171 175 179 183 184 190 187 188 188 189 187 179 179 180 181 183 178 174 173 176 182 185 181 177 177 176 178 177 184 186 187 193 187 191 189 197 217 224 224 220 213 208 205 209 208 209 217 222 233 234 235 236
200 197 202 181 165 177 182 187 177 173 183 177 182 182 187 185 189 193 190 193 186 183 184 181 184 184 178 175 178 181 186 188 185 183 179 177 180 177 159 186 182 185 189 188 184 196 224 234 229 225 220 213 208 208 201 207 219 225 229 234 231 235
199 198 166 165 175 175 187 180 175 180 175 179 186 183 184 184 192 196 196 193 187 188 187 185 184 184 180 178 179 187 191 187 190 187 169 175 184 180 188 191 191 186 179 181 186 199 228 233 237 233 227 219 209 205 177 199 210 225 227 236 231 231
176 169 168 173 181 186 179 172 175 175 178 184 183 182 187 191 201 200 193 192 192 190 186 187 187 185 181 179 188 193 195 192 188 183 178 182 181 190 196 184 180 184 181 182 193 198 214 232 235 236 233 223 215 204 175 194 200 229 233 231 236 228
172 170 164 167 184 189 173 171 169 174 184 183 183 185 189 200 204 196 193 195 189 186 188 190 189 186 183 188 197 194 190 190 190 181 178 192 188 193 169 172 180 183 190 191 190 199 211 233 236 236 235 230 221 213 173 191 203 223 226 218 229 232
109 132 161 183 193 158 157 157 166 178 182 183 176 186 201 207 203 190 191 189 185 188 190 190 189 189 188 197 197 193 198 180 160 174 183 190 182 175 175 177 182 185 197 186 183 204 214 226 236 232 239 237 230 222 195 177 200 219 221 221 223 222
136 158 174 162 138 143 151 152 162 180 182 173 179 201 209 202 179 184 192 187 186 188 189 188 190 193 198 197 193 185 177 177 184 173 178 181 173 164 175 186 187 189 197 196 201 202 220 219 233 238 236 243 237 230 218 176 210 218 221 220 223 220
90 92 95 127 144 146 151 155 167 178 167 175 200 212 201 173 187 187 182 184 186 186 185 190 195 197 193 178 159 167 186 185 170 180 177 168 171 179 188 188 188 191 201 206 213 216 221 223 227 235 250 247 244 235 226 207 200 212 214 223 221 225
120 138 150 142 145 149 157 155 167 168 176 191 214 203 174 183 174 174 176 178 180 186 189 190 186 184 172 175 178 176 182 169 167 167 163 168 176 185 191 196 192 190 206 219 227 227 226 221 224 233 240 249 246 241 234 229 219 222 217 208 222 225
123 125 127 140 144 153 155 162 166 175 182 213 207 144 152 152 158 156 169 181 188 183 186 184 182 179 172 172 167 172 168 171 170 167 177 178 180 186 197 204 196 197 207 218 230 226 227 221 215 230 235 242 244 243 238 235 232 224 218 220 222 223
155 143 136 139 148 153 164 167 167 174 201 217 132 167 160 158 154 166 182 190 187 185 181 170 177 178 175 172 168 171 175 171 166 177 188 179 191 193 201 205 193 205 211 214 225 227 222 218 214 219 233 237 241 240 238 237 235 234 231 230 226 224
131 144 154 174 181 169 171 176 161 177 214 137 153 153 156 153 163 178 193 189 185 182 164 169 177 177 179 176 183 187 183 179 181 187 184 187 198 198 202 203 198 211 211 219 225 222 220 213 211 221 225 232 239 240 239 237 236 236 237 239 242 240
145 161 166 184 212 188 188 180 200 197 128 153 155 153 155 166 175 186 184 188 181 167 170 177 181 179 179 184 185 188 181 181 185 184 186 193 195 200 205 208 203 208 211 220 221 214 203 214 215 219 220 218 222 230 237 241 243 242 241 244 247 251
168 175 180 199 206 194 190 197 206 188 147 151 155 151 154 169 182 185 191 184 172 177 181 187 178 174 183 190 185 187 192 197 191 191 197 193 196 195 207 203 206 208 207 213 202 190 205 220 218 218 215 218 213 218 220 228 236 239 244 248 244 236
181 191 186 211 193 184 192 210 204 175 173 164 154 155 161 175 181 173 168 166 163 183 183 184 179 190 187 193 204 217 206 195 196 207 221 233 207 212 206 203 217 217 207 196 195 188 212 219 222 225 214 212 208 206 207 217 219 217 224 230 235 240
188 188 210 233 147 183 205 216 212 196 184 159 160 158 161 165 161 168 180 175 179 177 175 187 190 190 191 193 202 208 245 253 222 223 217 224 204 214 223 206 212 200 188 204 217 190 201 210 220 220 218 220 221 223 221 220 221 221 219 225 234 235
180 194 228 227 172 182 201 215 204 193 195 166 168 165 161 155 164 179 184 178 195 190 189 186 189 192 193 197 193 199 210 238 249 230 227 221 215 220 223 224 225 214 202 193 216 222 228 237 228 215 218 223 223 225 229 232 231 230 230 231 230 240
199 205 225 202 181 192 186 195 199 188 187 182 177 178 169 176 173 189 199 199 195 184 187 190 187 182 189 198 194 196 201 209 225 254 236 229 226 225 227 230 230 228 223 214 207 194 233 236 234 229 227 226 227 231 234 239 242 242 241 241 244 243
212 222 219 179 195 197 199 194 213 190 185 184 182 176 181 189 194 205 206 198 190 189 186 185 189 193 192 194 193 201 196 203 211 222 236 238 233 231 231 232 232 233 233 231 228 217 205 211 223 230 233 233 234 237 240 243 246 248 249 251 249 244
202 201 195 199 205 204 198 210 227 204 197 179 177 181 192 195 203 209 199 194 194 189 195 195 197 194 200 197 195 197 195 210 207 219 200 199 241 245 238 234 233 233 235 237 234 235 235 229 229 233 237 242 245 245 248 251 253 254 254 252 253 251
177 192 195 194 199 200 206 226 242 212 189 175 176 185 199 206 209 217 223 207 192 198 203 198 196 196 191 187 193 193 197 204 201 194 194 195 201 212 214 209 217 228 229 230 234 240 241 243 245 243 243 247 249 254 258 259 254 249 247 249 261 269
158 197 194 178 181 194 208 268 332 31 191 170 171 184 202 212 216 220 226 224 210 206 204 195 192 186 186 190 193 185 191 179 179 193 200 195 201 207 207 206 184 149 21 12 12 9 330 295 278 267 267 267 269 267 260 256 252 254 249 248 247 245